[[{"header":{"parameterUnit":"m.s-1","parameterCategory":1,"la1":30.2991,"la2":30.254,"lo1":-89.0895,"lo2":-89.0444,"dy":0.0017,"dx":0.0017,"nx":28,"ny":28,"refTime":"2025-12-20T03:00:00:Z","depth":0,"parameterNumber":2,"parameterNumberName":"U-component_of_WINDS"},"data":[0,0,0,0,0,0,0,0,0,0,0,0,0,0,0,0,0,0,0,0,0,0,0,0,0,0,0,0,0,0,0,0,0,0,0,0,0,0,0,0,0,0,0,0,0,0,0,0,0,0,0,0,0,0,0,0,0,0,-1.2326,-1.2327,0,-1.246,-1.2461,-1.2463,-1.2539,-1.2539,-1.254,-1.254,-1.2682,-1.2685,-1.2688,0,0,0,0,0,0,0,0,0,0,0,0,0,-1.214,-1.2143,-1.2326,-1.2328,-1.2329,-1.2459,-1.2461,-1.2463,-1.2539,-1.2539,-1.254,-1.254,-1.268,-1.2685,-1.2689,0,0,0,0,0,0,0,0,0,0,0,0,0,-1.2242,-1.2144,-1.2326,-1.2383,-1.2389,-1.2459,-1.2461,-1.2464,-1.2539,-1.2539,-1.254,-1.254,-1.2679,-1.2684,-1.2689,-1.2714,0,0,-1.2705,-1.2708,0,0,0,0,0,0,0,0,-1.2236,-1.2249,-1.2373,-1.2379,-1.2386,-1.2483,-1.2448,-1.2548,-1.2539,-1.2482,-1.254,-1.254,-1.2615,-1.2626,-1.265,-1.2721,-1.2727,-1.2706,-1.2709,-1.2711,-1.2713,0,0,0,0,0,0,0,-1.2229,-1.2243,-1.2379,-1.2374,-1.2383,-1.2403,-1.2418,-1.2467,-1.2545,-1.2487,-1.2493,-1.2508,-1.2619,-1.2645,-1.2654,-1.2729,-1.2706,-1.2711,-1.2714,-1.2716,-1.2826,-1.2826,0,0,0,0,0,0,-1.2212,-1.2237,-1.2375,-1.2383,-1.231,-1.2406,-1.2423,-1.2452,-1.2545,-1.2559,-1.2507,-1.2511,-1.2636,-1.2648,-1.266,-1.2694,-1.2711,-1.2716,-1.2719,-1.2826,-1.2826,-1.2826,0,0,0,0,0,0,-1.2208,-1.2224,-1.2369,-1.2312,-1.2332,-1.2409,-1.2441,-1.2454,-1.248,-1.256,-1.2575,-1.2519,-1.2637,-1.2652,-1.27,-1.27,-1.2719,-1.2724,-1.2826,-1.2826,-1.2826,-1.2763,0,0,0,0,0,0,-1.2202,-1.2222,-1.2231,-1.2311,-1.2334,-1.2406,-1.2441,-1.2456,-1.2488,-1.2494,-1.2575,-1.2589,-1.2638,-1.2691,-1.2705,-1.2708,-1.2728,-1.2827,-1.2826,-1.2826,-1.2765,-1.2761,-1.2756,0,0,0,0,0,-1.2195,-1.2209,-1.2231,-1.2247,-1.2348,-1.2406,-1.2419,-1.2474,-1.2488,-1.2499,-1.255,-1.2586,-1.2698,-1.2695,-1.2711,-1.2716,-1.2827,-1.2826,-1.2826,-1.2767,-1.2761,-1.2756,0,0,0,0,0,0,-1.2129,-1.2221,-1.2246,-1.2286,-1.2337,-1.2418,-1.2433,-1.2467,-1.2516,-1.252,-1.2588,-1.2606,-1.2646,-1.2686,-1.2682,-1.2744,-1.2766,-1.2769,-1.2716,-1.2712,-1.2707,-1.2696,-1.2732,0,0,0,0,0,-1.2119,-1.2157,-1.2236,-1.2264,-1.2288,-1.2356,-1.2383,-1.2421,-1.2478,-1.25,-1.2555,-1.2609,-1.2657,-1.2687,-1.2735,-1.2772,-1.279,-1.2783,-1.2778,-1.2774,-1.2775,-1.2797,-1.2794,-1.2824,-1.2824,-1.2824,0,0,-1.2099,-1.2154,-1.2174,-1.2252,-1.2296,-1.2335,-1.2374,-1.2414,-1.2443,-1.2507,-1.2554,-1.2596,-1.2661,-1.2703,-1.2725,-1.2738,-1.2771,-1.2773,-1.2769,-1.2773,-1.2796,-1.2793,-1.2791,-1.2823,-1.2823,-1.2823,0,0,-1.2082,-1.2127,-1.2155,-1.2198,-1.2263,-1.2308,-1.2314,-1.239,-1.242,-1.2468,-1.2516,-1.2553,-1.2634,-1.2678,-1.2711,-1.2709,-1.2744,-1.2723,-1.2699,-1.272,-1.2717,-1.2715,-1.2714,-1.2713,-1.2724,-1.2724,-1.2724,0,-1.2049,-1.2108,-1.2165,-1.2202,-1.2234,-1.2292,-1.232,-1.236,-1.2438,-1.246,-1.2473,-1.2574,-1.2622,-1.2675,-1.2674,-1.2699,-1.2709,-1.2714,-1.2713,-1.2712,-1.2711,-1.271,-1.2709,-1.2721,-1.2721,-1.2722,-1.2722,0,-1.2064,-1.2104,-1.2119,-1.219,-1.2225,-1.2257,-1.232,-1.2349,-1.2384,-1.2427,-1.2475,-1.2535,-1.2595,-1.2611,-1.2647,-1.2669,-1.2674,-1.2699,-1.2723,-1.2704,-1.2704,-1.2705,-1.2716,-1.2718,-1.2718,-1.2719,0,0,-1.201,-1.2111,-1.2116,-1.2148,-1.2224,-1.2257,-1.2292,-1.2349,-1.2371,-1.2424,-1.2455,-1.2521,-1.2544,-1.2581,-1.2622,-1.264,-1.2633,-1.2663,-1.2666,-1.2654,-1.266,-1.264,-1.2639,-1.2657,-1.2658,-1.2658,-1.2655,0,-1.2003,-1.2066,-1.2118,-1.2163,-1.22,-1.2255,-1.2286,-1.2336,-1.2377,-1.2416,-1.2464,-1.2508,-1.2536,-1.2559,-1.2579,-1.263,-1.2635,-1.2631,-1.2688,-1.2689,-1.2668,-1.2639,-1.2619,-1.2612,-1.2655,-1.2655,-1.2655,0,-1.2004,-1.2051,-1.2098,-1.2168,-1.2186,-1.2212,-1.2268,-1.2305,-1.2363,-1.2392,-1.2433,-1.2475,-1.2515,-1.2535,-1.2592,-1.2587,-1.2614,-1.2642,-1.2643,-1.265,-1.267,-1.2644,-1.2612,-1.261,-1.2657,-1.2656,-1.2656,0,-1.1957,-1.2033,-1.2071,-1.2097,-1.2181,-1.2198,-1.2234,-1.2292,-1.2323,-1.2373,-1.2393,-1.2448,-1.2477,-1.2519,-1.2575,-1.2585,-1.2626,-1.2651,-1.2652,-1.265,-1.2657,-1.2656,-1.2627,-1.2676,-1.2676,-1.2676,-1.2676,0,-1.1944,-1.197,-1.2051,-1.2074,-1.2105,-1.2166,-1.2196,-1.2237,-1.2288,-1.2321,-1.2373,-1.2403,-1.2475,-1.2514,-1.2559,-1.2599,-1.2612,-1.2637,-1.2649,-1.2632,-1.2628,-1.265,-1.2651,-1.2676,-1.2676,-1.2676,-1.2676,0,-1.1897,-1.1952,-1.1997,-1.2071,-1.2091,-1.211,-1.2175,-1.22,-1.2244,-1.2285,-1.2298,-1.2368,-1.2416,-1.2476,-1.2545,-1.2575,-1.261,-1.2628,-1.2589,-1.2596,-1.2593,-1.2592,-1.2576,-1.2577,-1.2625,-1.2624,-1.2624,0,-1.1884,-1.1906,-1.1981,-1.2006,-1.2039,-1.2079,-1.211,-1.217,-1.22,-1.2267,-1.2284,-1.2336,-1.2381,-1.2456,-1.2514,-1.2567,-1.2586,-1.2577,-1.2594,-1.2576,-1.2584,-1.2581,-1.2584,-1.2572,-1.2571,-1.257,-1.257,0,-1.1855,-1.1881,-1.1922,-1.1972,-1.2007,-1.205,-1.2096,-1.2114,-1.2184,-1.2215,-1.2264,-1.2298,-1.2367,-1.2418,-1.2478,-1.2517,-1.2555,-1.2564,-1.2566,-1.2549,-1.2525,-1.2537,-1.2576,-1.2564,-1.2564,-1.2565,-1.2565,-1.2565,-1.1825,-1.1845,-1.1901,-1.1945,-1.1985,-1.2026,-1.2053,-1.2099,-1.214,-1.2199,-1.2233,-1.2281,-1.2339,-1.2422,-1.2459,-1.2499,-1.2513,-1.2517,-1.2518,-1.2518,-1.2512,-1.2519,-1.251,-1.251,-1.2511,-1.2511,-1.2511,0,-1.1797,-1.1835,-1.1875,-1.1935,-1.197,-1.2001,-1.2053,-1.208,-1.212,-1.217,-1.2212,-1.2268,-1.2318,-1.2379,-1.2433,-1.2452,-1.2471,-1.2464,-1.2463,-1.2471,-1.2497,-1.2488,-1.2448,-1.2448,-1.2448,-1.2448,-1.2448,-1.2448,-1.1786,-1.1822,-1.1854,-1.1911,-1.195,-1.1995,-1.2022,-1.206,-1.21,-1.2159,-1.2199,-1.2238,-1.2292,-1.235,-1.2397,-1.2414,-1.2431,-1.2419,-1.2441,-1.2464,-1.2469,-1.2475,-1.2467,-1.2423,-1.2423,-1.2412,-1.2412,-1.2412]},{"header":{"parameterUnit":"m.s-1","parameterCategory":1,"la1":30.2991,"la2":30.254,"lo1":-89.0895,"lo2":-89.0444,"dy":0.0017,"dx":0.0017,"nx":28,"ny":28,"refTime":"2025-12-20T03:00:00:Z","depth":0,"parameterNumber":3,"parameterNumberName":"V-component_of_WINDS"},"data":[0,0,0,0,0,0,0,0,0,0,0,0,0,0,0,0,0,0,0,0,0,0,0,0,0,0,0,0,0,0,0,0,0,0,0,0,0,0,0,0,0,0,0,0,0,0,0,0,0,0,0,0,0,0,0,0,0,0,2.2793,2.2795,0,2.2895,2.2896,2.2897,2.2884,2.2882,2.2881,2.2879,2.2979,2.2984,2.2988,0,0,0,0,0,0,0,0,0,0,0,0,0,2.2586,2.259,2.2793,2.2795,2.2796,2.2895,2.2896,2.2898,2.2884,2.2882,2.288,2.2878,2.2978,2.2983,2.2988,0,0,0,0,0,0,0,0,0,0,0,0,0,2.2681,2.2591,2.2793,2.2801,2.2803,2.2895,2.2896,2.2898,2.2885,2.2882,2.288,2.2877,2.2976,2.2983,2.2989,2.3078,0,0,2.3008,2.3011,0,0,0,0,0,0,0,0,2.2675,2.2688,2.2799,2.2801,2.2803,2.2874,2.286,2.2958,2.2885,2.2853,2.2879,2.2876,2.2946,2.2955,2.2979,2.3083,2.3087,2.3009,2.3013,2.3015,2.3017,0,0,0,0,0,0,0,2.2669,2.2684,2.2833,2.28,2.2803,2.2799,2.281,2.2879,2.2912,2.2856,2.2855,2.2868,2.2947,2.2973,2.2982,2.3088,2.3009,2.3014,2.3018,2.3021,2.3273,2.3275,0,0,0,0,0,0,2.2661,2.2678,2.283,2.2837,2.2732,2.2805,2.2817,2.2854,2.2912,2.2918,2.287,2.2867,2.2964,2.2974,2.2985,2.3095,2.3015,2.3021,2.3025,2.327,2.3273,2.3276,0,0,0,0,0,0,2.2656,2.2674,2.2826,2.2757,2.2777,2.2811,2.2853,2.2857,2.2884,2.2922,2.2928,2.2891,2.2962,2.2976,2.3056,2.3099,2.3024,2.303,2.3266,2.3271,2.3275,2.3315,0,0,0,0,0,0,2.265,2.2673,2.2707,2.2758,2.278,2.2896,2.2855,2.2861,2.2895,2.2892,2.2943,2.2949,2.2961,2.3046,2.3062,2.3106,2.3035,2.3263,2.3268,2.3273,2.331,2.332,2.3329,0,0,0,0,0,2.2643,2.2713,2.2709,2.2727,2.2824,2.2898,2.2911,2.2924,2.2898,2.2933,2.2959,2.2948,2.3091,2.3055,2.3072,2.3119,2.326,2.3267,2.3273,2.3306,2.3318,2.3329,0,0,0,0,0,0,2.2664,2.272,2.2716,2.2805,2.2847,2.2896,2.294,2.2936,2.2986,2.2981,2.2994,2.3006,2.3087,2.311,2.3069,2.3209,2.3172,2.3182,2.3191,2.3203,2.3212,2.3205,2.304,0,0,0,0,0,2.2679,2.2735,2.2781,2.2855,2.2877,2.2905,2.2938,2.2945,2.2988,2.3006,2.3037,2.3079,2.3134,2.3169,2.3222,2.3313,2.3325,2.3354,2.3363,2.3371,2.338,2.3432,2.3446,2.3298,2.3298,2.3298,0,0,2.271,2.2748,2.2782,2.286,2.2894,2.2952,2.292,2.2982,2.3025,2.3015,2.3093,2.3117,2.3165,2.3252,2.3292,2.3274,2.3424,2.3379,2.3385,2.339,2.344,2.3455,2.3467,2.3302,2.3301,2.3301,0,0,2.2798,2.2831,2.2898,2.2933,2.2986,2.3005,2.3021,2.3071,2.3087,2.3166,2.3161,2.3212,2.3305,2.3341,2.3371,2.3475,2.3468,2.3491,2.3541,2.3592,2.3604,2.3614,2.3653,2.3667,2.35,2.35,2.35,0,2.283,2.2918,2.2932,2.2997,2.3032,2.3027,2.3095,2.3128,2.3194,2.3218,2.3198,2.3318,2.3349,2.3446,2.3471,2.3495,2.3515,2.3486,2.3601,2.3612,2.3622,2.3659,2.3673,2.3503,2.3503,2.3502,2.3502,0,2.2957,2.3018,2.3065,2.3132,2.3172,2.3238,2.3262,2.3301,2.3305,2.3326,2.3407,2.3446,2.3507,2.353,2.3533,2.3628,2.3616,2.3598,2.3561,2.3638,2.3674,2.3688,2.3507,2.3506,2.3505,2.3504,0,0,2.3059,2.3135,2.3152,2.3184,2.3242,2.329,2.3355,2.3417,2.3451,2.3497,2.3553,2.3634,2.3619,2.3654,2.3661,2.3706,2.3789,2.3683,2.3684,2.3703,2.3897,2.3911,2.3927,2.3784,2.3786,2.3789,2.3894,0,2.3154,2.3272,2.3288,2.3392,2.345,2.3448,2.3505,2.3547,2.3569,2.3621,2.3644,2.3703,2.3677,2.3699,2.3743,2.3769,2.3828,2.3761,2.3837,2.3839,2.3826,2.3945,2.396,2.4057,2.3907,2.391,2.3911,0,2.328,2.3332,2.3443,2.3497,2.3521,2.3573,2.3632,2.3682,2.373,2.3743,2.3783,2.3785,2.3854,2.3814,2.3909,2.3864,2.3895,2.3913,2.3917,2.3926,2.3881,2.3958,2.4088,2.4103,2.3933,2.3931,2.3929,0,2.3346,2.3444,2.3524,2.355,2.3614,2.3651,2.3679,2.3725,2.3762,2.3813,2.3838,2.3895,2.3927,2.3972,2.3991,2.3959,2.4086,2.4046,2.4099,2.4098,2.4126,2.4124,2.4264,2.4144,2.4144,2.4143,2.4143,0,2.3451,2.3519,2.3555,2.3604,2.3681,2.3699,2.3775,2.3801,2.3842,2.3897,2.3897,2.3948,2.3968,2.4023,2.4037,2.4115,2.4129,2.4141,2.4145,2.4142,2.4141,2.4164,2.4158,2.4147,2.4146,2.4146,2.4145,0,2.3538,2.3565,2.3652,2.3706,2.3721,2.3776,2.3822,2.387,2.3892,2.3961,2.3978,2.4012,2.4076,2.4099,2.4176,2.4186,2.4277,2.4273,2.4261,2.4263,2.4314,2.431,2.4475,2.4498,2.4361,2.4362,2.4363,0,2.3604,2.3657,2.3718,2.3755,2.3785,2.3845,2.3884,2.3903,2.3944,2.4004,2.4045,2.4109,2.4162,2.4264,2.4295,2.4355,2.4354,2.4408,2.4363,2.436,2.4357,2.4355,2.4361,2.4416,2.4418,2.4419,2.442,0,2.3719,2.373,2.3787,2.3849,2.3896,2.3945,2.3992,2.4023,2.405,2.4095,2.4162,2.4203,2.4283,2.4347,2.4409,2.4436,2.4434,2.4434,2.445,2.4448,2.444,2.4447,2.4286,2.443,2.4429,2.4428,2.4428,2.4427,2.3799,2.3847,2.3898,2.3962,2.4,2.4046,2.4094,2.4124,2.418,2.4249,2.4256,2.4329,2.4377,2.446,2.4491,2.4547,2.4532,2.4554,2.456,2.4566,2.4571,2.443,2.4558,2.4558,2.4558,2.4557,2.4557,0,2.3916,2.3949,2.4007,2.4076,2.4126,2.412,2.4173,2.4216,2.428,2.4326,2.4379,2.4456,2.4519,2.4557,2.462,2.4658,2.4658,2.4674,2.4672,2.4679,2.4579,2.4561,2.4673,2.4673,2.4673,2.4673,2.4673,2.4673,2.3982,2.4065,2.4082,2.4184,2.4217,2.4289,2.432,2.4362,2.44,2.4487,2.454,2.4565,2.4608,2.4674,2.4732,2.4741,2.4765,2.4783,2.4791,2.4697,2.4686,2.4674,2.4657,2.4787,2.4788,2.4886,2.4887,2.4888]}]]